KLC334 EDDH-EGLC

Flight info

Callsign KLC334
Flight time 1h 16m
Altitude 40000
Route WSN5C WSN N125 ITMIZ DCT GALSO Q63 SUMUM
Aircraft E190/M-SDE3GILORVW/S

Departure

Time 2026-04-22 00:19
Airport Hamburg Helmut Schmidt Airport (EDDH)

Arrival

Time 2026-04-22 01:35
Airport London City Airport (EGLC)
Time Latitude Longitude Altitude Speed Heading
2026-04-21 23:26 53.62758 9.99379 49 ft 0 kts 244°
2026-04-22 00:06 53.62760 9.99386 48 ft 2 kts 244°
2026-04-22 00:06 53.62767 9.99410 49 ft 2 kts 244°
2026-04-22 00:06 53.62775 9.99435 49 ft 2 kts 243°
2026-04-22 00:06 53.62782 9.99459 44 ft 2 kts 234°
2026-04-22 00:07 53.62794 9.99477 47 ft 2 kts 198°
2026-04-22 00:07 53.62810 9.99479 48 ft 2 kts 153°
2026-04-22 00:07 53.62802 9.99489 46 ft 2 kts 145°
2026-04-22 00:07 53.62788 9.99503 48 ft 2 kts 151°
2026-04-22 00:08 53.62774 9.99516 47 ft 2 kts 151°
2026-04-22 00:08 53.62765 9.99524 47 ft 0 kts 151°
2026-04-22 00:11 53.62753 9.99535 48 ft 3 kts 151°
2026-04-22 00:11 53.62722 9.99564 49 ft 7 kts 151°
2026-04-22 00:11 53.62672 9.99605 49 ft 9 kts 162°
2026-04-22 00:11 53.62617 9.99559 49 ft 10 kts 246°
2026-04-22 00:12 53.62602 9.99434 49 ft 12 kts 259°
2026-04-22 00:12 53.62585 9.99280 49 ft 15 kts 259°
2026-04-22 00:12 53.62564 9.99107 47 ft 12 kts 258°
2026-04-22 00:12 53.62547 9.98958 47 ft 14 kts 259°
2026-04-22 00:13 53.62528 9.98781 49 ft 17 kts 259°
2026-04-22 00:13 53.62504 9.98578 48 ft 19 kts 258°
2026-04-22 00:13 53.62478 9.98353 47 ft 21 kts 259°
2026-04-22 00:13 53.62440 9.98131 48 ft 17 kts 242°
2026-04-22 00:14 53.62370 9.97969 49 ft 18 kts 230°
2026-04-22 00:14 53.62288 9.97803 49 ft 19 kts 230°
2026-04-22 00:14 53.62199 9.97621 49 ft 21 kts 231°
2026-04-22 00:14 53.62100 9.97425 49 ft 23 kts 230°
2026-04-22 00:15 53.61996 9.97214 49 ft 22 kts 230°
2026-04-22 00:15 53.61903 9.97032 49 ft 17 kts 230°
2026-04-22 00:15 53.61824 9.96871 49 ft 19 kts 231°
2026-04-22 00:15 53.61767 9.96754 49 ft 20 kts 230°
2026-04-22 00:16 53.61675 9.96558 49 ft 14 kts 242°
2026-04-22 00:16 53.61710 9.96421 49 ft 15 kts 342°
2026-04-22 00:16 53.61825 9.96433 46 ft 18 kts 11°
2026-04-22 00:16 53.61919 9.96563 46 ft 18 kts 50°
2026-04-22 00:17 53.62004 9.96738 44 ft 11 kts 50°
2026-04-22 00:17 53.62008 9.96745 44 ft 0 kts 50°
2026-04-22 00:17 53.62021 9.96770 45 ft 19 kts 50°
2026-04-22 00:17 53.62258 9.97249 47 ft 86 kts 50°
2026-04-22 00:18 53.62772 9.98284 51 ft 140 kts 49°
2026-04-22 00:18 53.63472 9.99644 304 ft 169 kts 49°
2026-04-22 00:18 53.64353 10.01411 354 ft 217 kts 51°
2026-04-22 00:18 53.65393 10.03567 416 ft 266 kts 51°
2026-04-22 00:19 53.66610 10.06021 1137 ft 258 kts 50°
2026-04-22 00:19 53.67765 10.08288 1828 ft 258 kts 50°
2026-04-22 00:19 53.69010 10.10749 1909 ft 295 kts 49°
2026-04-22 00:19 53.70620 10.12920 1882 ft 300 kts 28°
2026-04-22 00:20 53.72619 10.13697 1654 ft 304 kts
2026-04-22 00:20 53.74617 10.12638 2073 ft 298 kts 325°
2026-04-22 00:20 53.75873 10.09835 2888 ft 303 kts 294°
2026-04-22 00:20 53.76375 10.06358 3586 ft 317 kts 271°
2026-04-22 00:21 53.76066 10.02695 4520 ft 313 kts 258°
2026-04-22 00:21 53.75646 9.99100 5515 ft 309 kts 259°
2026-04-22 00:21 53.75319 9.95530 6504 ft 304 kts 262°
2026-04-22 00:21 53.74786 9.92161 7418 ft 298 kts 248°
2026-04-22 00:22 53.73916 9.89013 8309 ft 294 kts 244°
2026-04-22 00:22 53.73045 9.85874 9027 ft 296 kts 245°
2026-04-22 00:22 53.72170 9.82699 9713 ft 300 kts 244°
2026-04-22 00:22 53.71281 9.79481 10391 ft 305 kts 244°
2026-04-22 00:23 53.70356 9.76150 10636 ft 325 kts 244°
2026-04-22 00:23 53.69387 9.72689 11285 ft 328 kts 244°
2026-04-22 00:23 53.68399 9.69146 11504 ft 346 kts 244°
2026-04-22 00:23 53.67345 9.65399 11853 ft 358 kts 244°
2026-04-22 00:24 53.66295 9.61668 12854 ft 347 kts 244°
2026-04-22 00:24 53.65228 9.57996 13495 ft 350 kts 239°
2026-04-22 00:24 53.63884 9.54554 14161 ft 352 kts 232°
2026-04-22 00:24 53.62424 9.51245 14595 ft 343 kts 232°
2026-04-22 00:25 53.61050 9.48074 14560 ft 340 kts 232°
2026-04-22 00:25 53.59623 9.44779 14779 ft 356 kts 233°
2026-04-22 00:25 53.58135 9.41329 14992 ft 371 kts 233°
2026-04-22 00:25 53.56602 9.37770 15409 ft 378 kts 233°
2026-04-22 00:26 53.55107 9.34293 16275 ft 369 kts 233°
2026-04-22 00:26 53.53570 9.30734 16566 ft 381 kts 233°
2026-04-22 00:26 53.52029 9.27167 17396 ft 376 kts 233°
2026-04-22 00:26 53.50474 9.23585 17971 ft 379 kts 233°
2026-04-22 00:27 53.48934 9.20031 18583 ft 381 kts 233°
2026-04-22 00:27 53.47358 9.16405 19124 ft 384 kts 232°
2026-04-22 00:27 53.45774 9.12762 19627 ft 388 kts 232°
2026-04-22 00:27 53.44187 9.09121 20136 ft 392 kts 232°
2026-04-22 00:28 53.42565 9.05402 20640 ft 396 kts 232°
2026-04-22 00:28 53.40922 9.01642 21135 ft 399 kts 232°
2026-04-22 00:28 53.39294 8.97918 21644 ft 403 kts 232°
2026-04-22 00:28 53.37618 8.94095 21891 ft 412 kts 232°
2026-04-22 00:29 53.35897 8.90174 22105 ft 421 kts 232°
2026-04-22 00:29 53.34324 8.85973 22452 ft 428 kts 244°
2026-04-22 00:29 53.33266 8.81388 23244 ft 421 kts 250°
2026-04-22 00:29 53.32279 8.76745 23545 ft 430 kts 250°
2026-04-22 00:30 53.31247 8.71981 23709 ft 439 kts 249°
2026-04-22 00:30 53.30207 8.67216 24016 ft 444 kts 249°
2026-04-22 00:30 53.29143 8.62349 24449 ft 443 kts 250°
2026-04-22 00:30 53.28122 8.57562 25118 ft 438 kts 250°
2026-04-22 00:31 53.27073 8.52704 25116 ft 450 kts 250°
2026-04-22 00:31 53.26007 8.47746 25422 ft 453 kts 250°
2026-04-22 00:31 53.25067 8.42723 25853 ft 452 kts 253°
2026-04-22 00:31 53.24152 8.37745 26247 ft 451 kts 252°
2026-04-22 00:32 53.23220 8.32733 26554 ft 454 kts 252°
2026-04-22 00:32 53.22259 8.27622 26581 ft 463 kts 252°
2026-04-22 00:32 53.21285 8.22470 26753 ft 467 kts 252°
2026-04-22 00:32 53.20310 8.17333 27042 ft 468 kts 252°
2026-04-22 00:33 53.19318 8.12138 27324 ft 470 kts 252°
2026-04-22 00:33 53.18330 8.06928 27601 ft 471 kts 252°
2026-04-22 00:33 53.17349 8.01692 27868 ft 473 kts 252°
2026-04-22 00:33 53.16373 7.96510 28128 ft 474 kts 252°
2026-04-22 00:34 53.15379 7.91254 28384 ft 476 kts 252°
2026-04-22 00:34 53.14378 7.85979 28635 ft 478 kts 252°
2026-04-22 00:34 53.13371 7.80689 28867 ft 479 kts 252°
2026-04-22 00:34 53.12356 7.75366 29097 ft 481 kts 252°
2026-04-22 00:35 53.11338 7.70054 29308 ft 483 kts 252°
2026-04-22 00:35 53.10239 7.64764 29547 ft 482 kts 247°
2026-04-22 00:35 53.08888 7.59779 29948 ft 478 kts 244°
2026-04-22 00:35 53.07471 7.54777 30276 ft 477 kts 244°
2026-04-22 00:36 53.06065 7.49782 30499 ft 478 kts 244°
2026-04-22 00:36 53.03249 7.39771 30475 ft 478 kts 244°
2026-04-22 00:37 53.00433 7.29775 30485 ft 476 kts 244°
2026-04-22 00:37 52.97617 7.19807 30485 ft 476 kts 244°
2026-04-22 00:38 52.94813 7.09920 30463 ft 476 kts 244°
2026-04-22 00:38 52.92004 7.00051 30467 ft 472 kts 244°
2026-04-22 00:39 52.89190 6.90209 30462 ft 472 kts 244°
2026-04-22 00:39 52.86386 6.80440 30459 ft 472 kts 244°
2026-04-22 00:40 52.83552 6.70611 30455 ft 472 kts 244°
2026-04-22 00:40 52.80710 6.60788 30455 ft 470 kts 244°
2026-04-22 00:41 52.77901 6.51119 30446 ft 466 kts 244°
2026-04-22 00:41 52.75087 6.41446 30451 ft 466 kts 244°
2026-04-22 00:42 52.72280 6.31833 30452 ft 466 kts 244°
2026-04-22 00:42 52.69451 6.22177 30449 ft 467 kts 243°
2026-04-22 00:43 52.66629 6.12591 30451 ft 467 kts 243°
2026-04-22 00:43 52.63781 6.02938 30451 ft 467 kts 243°
2026-04-22 00:44 52.60943 5.93375 30460 ft 461 kts 244°
2026-04-22 00:44 52.58145 5.83965 30456 ft 460 kts 243°
2026-04-22 00:45 52.55315 5.74520 30454 ft 460 kts 243°
2026-04-22 00:45 52.52477 5.65053 30449 ft 461 kts 243°
2026-04-22 00:46 52.49630 5.55618 30456 ft 460 kts 243°
2026-04-22 00:46 52.46797 5.46233 30455 ft 459 kts 243°
2026-04-22 00:47 52.43949 5.36862 30453 ft 458 kts 243°
2026-04-22 00:47 52.41117 5.27569 30453 ft 458 kts 243°
2026-04-22 00:48 52.38268 5.18264 30448 ft 457 kts 243°
2026-04-22 00:48 52.35413 5.08972 30434 ft 457 kts 243°
2026-04-22 00:49 52.32552 4.99685 30432 ft 457 kts 243°
2026-04-22 00:49 52.29682 4.90427 30438 ft 453 kts 242°
2026-04-22 00:50 52.26835 4.81257 30433 ft 454 kts 243°
2026-04-22 00:50 52.23971 4.72059 30430 ft 454 kts 242°
2026-04-22 00:51 52.21111 4.62927 30435 ft 454 kts 242°
2026-04-22 00:51 52.18236 4.53764 30428 ft 453 kts 243°
2026-04-22 00:52 52.15351 4.44628 30433 ft 453 kts 243°
2026-04-22 00:52 52.12459 4.35494 30435 ft 453 kts 243°
2026-04-22 00:53 52.09575 4.26409 30432 ft 453 kts 242°
2026-04-22 00:53 52.06670 4.17305 30432 ft 453 kts 242°
2026-04-22 00:54 52.03759 4.08213 30430 ft 453 kts 242°
2026-04-22 00:54 52.00863 3.99200 30430 ft 453 kts 242°
2026-04-22 00:55 51.97943 3.90134 30433 ft 452 kts 241°
2026-04-22 00:55 51.93576 3.76652 30419 ft 448 kts 242°
2026-04-22 00:56 51.90647 3.67692 30424 ft 448 kts 242°
2026-04-22 00:56 51.87726 3.58766 30425 ft 451 kts 241°
2026-04-22 00:57 51.84787 3.49804 30418 ft 449 kts 241°
2026-04-22 00:57 51.81885 3.40958 30417 ft 446 kts 242°
2026-04-22 00:58 51.78971 3.32089 30426 ft 446 kts 241°
2026-04-22 00:58 51.76044 3.23255 30420 ft 445 kts 242°
2026-04-22 00:59 51.74572 3.18822 30167 ft 448 kts 243°
2026-04-22 00:59 51.73444 3.14191 29887 ft 444 kts 255°
2026-04-22 00:59 51.72797 3.09270 29291 ft 452 kts 261°
2026-04-22 00:59 51.72324 3.04241 28678 ft 453 kts 262°
2026-04-22 01:00 51.71861 2.99237 28056 ft 449 kts 262°
2026-04-22 01:00 51.71408 2.94295 27432 ft 443 kts 262°
2026-04-22 01:00 51.70959 2.89381 26853 ft 440 kts 263°
2026-04-22 01:00 51.70517 2.84528 26277 ft 432 kts 263°
2026-04-22 01:01 51.70077 2.79749 25699 ft 426 kts 263°
2026-04-22 01:01 51.69648 2.75087 25141 ft 425 kts 262°
2026-04-22 01:01 51.69213 2.70363 24579 ft 425 kts 263°
2026-04-22 01:01 51.68776 2.65631 24005 ft 424 kts 262°
2026-04-22 01:02 51.68352 2.60933 23411 ft 418 kts 262°
2026-04-22 01:02 51.68079 2.57870 23064 ft 414 kts 263°
2026-04-22 01:02 51.67529 2.51734 22334 ft 413 kts 263°
2026-04-22 01:02 51.67121 2.47198 21801 ft 411 kts 263°
2026-04-22 01:03 51.66705 2.42654 21257 ft 407 kts 262°
2026-04-22 01:03 51.66430 2.39671 20890 ft 403 kts 263°
2026-04-22 01:03 51.66016 2.35192 20367 ft 402 kts 263°
2026-04-22 01:03 51.65602 2.30721 19821 ft 403 kts 263°
2026-04-22 01:04 51.65190 2.26287 19291 ft 399 kts 262°
2026-04-22 01:04 51.64781 2.21891 18765 ft 395 kts 262°
2026-04-22 01:04 51.64370 2.17509 18216 ft 392 kts 262°
2026-04-22 01:04 51.63967 2.13230 17726 ft 392 kts 263°
2026-04-22 01:05 51.63957 2.08887 17193 ft 386 kts 282°
2026-04-22 01:05 51.64833 2.04846 16752 ft 381 kts 295°
2026-04-22 01:05 51.65829 2.00877 16204 ft 381 kts 292°
2026-04-22 01:05 51.66761 1.96904 15688 ft 376 kts 292°
2026-04-22 01:06 51.67673 1.92960 15188 ft 374 kts 291°
2026-04-22 01:06 51.68562 1.89056 14692 ft 365 kts 291°
2026-04-22 01:06 51.69409 1.85301 14214 ft 356 kts 291°
2026-04-22 01:06 51.70242 1.81580 13744 ft 348 kts 291°
2026-04-22 01:07 51.71049 1.77960 13295 ft 335 kts 291°
2026-04-22 01:07 51.71815 1.74500 12844 ft 323 kts 291°
2026-04-22 01:07 51.72571 1.71086 12463 ft 322 kts 291°
2026-04-22 01:07 51.73313 1.67725 12018 ft 320 kts 291°
2026-04-22 01:08 51.74055 1.64353 11603 ft 318 kts 291°
2026-04-22 01:08 51.74724 1.60943 11159 ft 318 kts 281°
2026-04-22 01:08 51.74717 1.57407 10762 ft 314 kts 261°
2026-04-22 01:08 51.74405 1.53933 10342 ft 310 kts 262°
2026-04-22 01:09 51.74150 1.50499 9907 ft 307 kts 263°
2026-04-22 01:09 51.73906 1.47111 9572 ft 300 kts 263°
2026-04-22 01:09 51.73624 1.43885 9406 ft 287 kts 252°
2026-04-22 01:09 51.72652 1.41247 9313 ft 265 kts 216°
2026-04-22 01:10 51.71091 1.40003 9348 ft 243 kts 189°
2026-04-22 01:10 51.69461 1.39190 9327 ft 247 kts 194°
2026-04-22 01:10 51.67854 1.38212 9331 ft 246 kts 196°
2026-04-22 01:10 51.66263 1.37185 9336 ft 247 kts 197°
2026-04-22 01:11 51.64676 1.36123 9340 ft 248 kts 198°
2026-04-22 01:11 51.63088 1.35037 9334 ft 248 kts 198°
2026-04-22 01:11 51.61504 1.33937 9322 ft 248 kts 197°
2026-04-22 01:11 51.59935 1.32842 9317 ft 248 kts 198°
2026-04-22 01:12 51.58303 1.32301 9307 ft 234 kts 167°
2026-04-22 01:12 51.56736 1.32874 9353 ft 231 kts 157°
2026-04-22 01:12 51.55187 1.33617 9353 ft 233 kts 159°
2026-04-22 01:12 51.53620 1.34315 9317 ft 234 kts 159°
2026-04-22 01:13 51.52076 1.34998 9316 ft 232 kts 159°
2026-04-22 01:13 51.50522 1.35676 9305 ft 232 kts 159°
2026-04-22 01:13 51.48916 1.36083 9286 ft 239 kts 179°
2026-04-22 01:13 51.47248 1.35747 9311 ft 242 kts 181°
2026-04-22 01:14 51.45572 1.35486 9319 ft 241 kts 179°
2026-04-22 01:14 51.43905 1.35254 9312 ft 240 kts 179°
2026-04-22 01:14 51.42254 1.35044 9304 ft 240 kts 179°
2026-04-22 01:14 51.40589 1.34796 9299 ft 242 kts 186°
2026-04-22 01:15 51.39006 1.33764 9332 ft 248 kts 202°
2026-04-22 01:15 51.37443 1.32563 9312 ft 248 kts 199°
2026-04-22 01:15 51.35864 1.31431 9305 ft 248 kts 199°
2026-04-22 01:15 51.34333 1.30061 9005 ft 263 kts 220°
2026-04-22 01:16 51.33440 1.27550 8866 ft 261 kts 258°
2026-04-22 01:16 51.33583 1.24754 8758 ft 258 kts 296°
2026-04-22 01:16 51.34640 1.22519 8666 ft 252 kts 320°
2026-04-22 01:16 51.35845 1.20459 8515 ft 256 kts 314°
2026-04-22 01:17 51.36953 1.18205 8318 ft 257 kts 310°
2026-04-22 01:17 51.38009 1.15883 8128 ft 257 kts 308°
2026-04-22 01:17 51.39052 1.13486 7614 ft 266 kts 308°
2026-04-22 01:17 51.40072 1.11057 7430 ft 259 kts 306°
2026-04-22 01:18 51.41025 1.08635 7207 ft 255 kts 305°
2026-04-22 01:18 51.41943 1.06268 7039 ft 251 kts 305°
2026-04-22 01:18 51.42866 1.03896 6863 ft 250 kts 305°
2026-04-22 01:18 51.43782 1.01537 6676 ft 249 kts 305°
2026-04-22 01:19 51.44703 0.99169 6498 ft 248 kts 305°
2026-04-22 01:19 51.45604 0.96845 6311 ft 247 kts 305°
2026-04-22 01:19 51.46514 0.94498 6148 ft 247 kts 304°
2026-04-22 01:19 51.47372 0.92120 6122 ft 246 kts 293°
2026-04-22 01:20 51.47703 0.89408 6123 ft 249 kts 272°
2026-04-22 01:20 51.47749 0.86611 6093 ft 253 kts 272°
2026-04-22 01:20 51.47834 0.83829 5975 ft 254 kts 272°
2026-04-22 01:20 51.47925 0.80987 5808 ft 252 kts 273°
2026-04-22 01:21 51.48023 0.78190 5764 ft 248 kts 273°
2026-04-22 01:21 51.48118 0.75454 5723 ft 248 kts 273°
2026-04-22 01:21 51.48218 0.72674 5647 ft 249 kts 273°
2026-04-22 01:21 51.48317 0.69888 5554 ft 250 kts 273°
2026-04-22 01:22 51.48417 0.67103 5420 ft 249 kts 273°
2026-04-22 01:22 51.48518 0.64334 5304 ft 247 kts 273°
2026-04-22 01:22 51.48617 0.61588 5179 ft 246 kts 273°
2026-04-22 01:22 51.48716 0.58851 5060 ft 245 kts 274°
2026-04-22 01:23 51.48815 0.56108 4845 ft 247 kts 274°
2026-04-22 01:23 51.48914 0.53349 4597 ft 247 kts 273°
2026-04-22 01:23 51.49010 0.50636 4355 ft 246 kts 273°
2026-04-22 01:23 51.49104 0.47908 4135 ft 244 kts 270°
2026-04-22 01:24 51.48767 0.45294 3917 ft 238 kts 239°
2026-04-22 01:24 51.47891 0.43036 3723 ft 235 kts 232°
2026-04-22 01:24 51.47024 0.40856 3586 ft 235 kts 233°
2026-04-22 01:24 51.46173 0.38624 3475 ft 234 kts 234°
2026-04-22 01:25 51.45331 0.36388 3332 ft 235 kts 234°
2026-04-22 01:25 51.44491 0.34139 3201 ft 235 kts 234°
2026-04-22 01:25 51.43656 0.31893 3148 ft 233 kts 234°
2026-04-22 01:25 51.42995 0.29525 3109 ft 235 kts 256°
2026-04-22 01:26 51.43005 0.26935 3017 ft 230 kts 276°
2026-04-22 01:26 51.43170 0.24438 2967 ft 221 kts 273°
2026-04-22 01:26 51.43270 0.21992 2924 ft 219 kts 272°
2026-04-22 01:26 51.43361 0.19524 2756 ft 222 kts 272°
2026-04-22 01:27 51.43438 0.17079 2685 ft 218 kts 272°
2026-04-22 01:27 51.43532 0.14654 2628 ft 218 kts 272°
2026-04-22 01:27 51.43620 0.12228 2555 ft 219 kts 272°
2026-04-22 01:27 51.43701 0.09801 2369 ft 222 kts 272°
2026-04-22 01:28 51.43783 0.07334 2190 ft 220 kts 273°
2026-04-22 01:28 51.43862 0.04914 2143 ft 214 kts 272°
2026-04-22 01:28 51.43938 0.02540 2128 ft 214 kts 272°
2026-04-22 01:28 51.44013 0.00143 2102 ft 217 kts 272°
2026-04-22 01:29 51.44087 -0.02284 2041 ft 218 kts 272°
2026-04-22 01:29 51.44161 -0.04690 1991 ft 213 kts 272°
2026-04-22 01:29 51.44236 -0.07046 2017 ft 214 kts 272°
2026-04-22 01:29 51.44378 -0.09410 2109 ft 213 kts 287°
2026-04-22 01:30 51.45206 -0.11249 2186 ft 199 kts 333°
2026-04-22 01:30 51.46390 -0.11840 2324 ft 162 kts
2026-04-22 01:30 51.47475 -0.11976 2043 ft 149 kts
2026-04-22 01:30 51.48449 -0.12096 1900 ft 129 kts 14°
2026-04-22 01:31 51.49239 -0.11703 1924 ft 112 kts 45°
2026-04-22 01:31 51.49752 -0.10833 1957 ft 107 kts 60°
2026-04-22 01:31 51.50235 -0.09920 2008 ft 108 kts 58°
2026-04-22 01:31 51.50696 -0.09005 2018 ft 104 kts 68°
2026-04-22 01:32 51.50910 -0.07940 2017 ft 97 kts 93°
2026-04-22 01:32 51.50884 -0.06844 2066 ft 99 kts 93°
2026-04-22 01:32 51.50869 -0.05742 2071 ft 98 kts 93°
2026-04-22 01:32 51.50839 -0.04646 2079 ft 98 kts 93°
2026-04-22 01:33 51.50800 -0.03516 1875 ft 106 kts 92°
2026-04-22 01:33 51.50766 -0.02353 1594 ft 103 kts 91°
2026-04-22 01:33 51.50733 -0.01193 1368 ft 105 kts 91°
2026-04-22 01:33 51.50696 -0.00005 1080 ft 111 kts 89°
2026-04-22 01:34 51.50655 0.01268 764 ft 116 kts 90°
2026-04-22 01:34 51.50614 0.02579 469 ft 119 kts 90°
2026-04-22 01:34 51.50574 0.03904 171 ft 119 kts 91°
2026-04-22 01:34 51.50532 0.05183 27 ft 104 kts 91°
2026-04-22 01:35 51.50510 0.06055 21 ft 58 kts 93°
2026-04-22 01:35 51.50452 0.06348 26 ft 13 kts 163°
2026-04-22 01:35 51.50428 0.06316 26 ft 4 kts 271°
2026-04-22 01:35 51.50431 0.06246 25 ft 8 kts 274°
2026-04-22 01:36 51.50438 0.06119 21 ft 15 kts 276°
2026-04-22 01:36 51.50446 0.05930 20 ft 18 kts 271°
2026-04-22 01:36 51.50450 0.05723 22 ft 20 kts 272°
2026-04-22 01:36 51.50455 0.05528 21 ft 15 kts 272°
2026-04-22 01:37 51.50449 0.05365 26 ft 14 kts 267°
2026-04-22 01:37 51.50451 0.05216 27 ft 13 kts 272°
2026-04-22 01:37 51.50459 0.05056 28 ft 16 kts 278°
2026-04-22 01:37 51.50465 0.04873 28 ft 17 kts 273°
2026-04-22 01:38 51.50472 0.04677 27 ft 20 kts 272°
2026-04-22 01:38 51.50466 0.04525 24 ft 4 kts 221°
2026-04-22 01:38 51.50444 0.04524 24 ft 0 kts 184°